N289R KDFW-KPHX

Flight info

Callsign N289R
Flight time N/A
Altitude 24000
Route WSTEX2 CIKAN EWM DRRVR PINNG1
Aircraft SF50/L-BDGRSWY/LB2U2

Departure

Time 2026-05-07 21:22
Airport Dallas Fort Worth International Airport (KDFW)

Arrival

Time N/A
Airport Phoenix Sky Harbor International Airport (KPHX)
Time Latitude Longitude Altitude Speed Heading
2026-05-07 21:11 32.89779 -97.03493 592 ft 0 kts 261°
2026-05-07 21:16 32.89783 -97.03469 592 ft 8 kts 103°
2026-05-07 21:16 32.89728 -97.03403 592 ft 15 kts 156°
2026-05-07 21:17 32.89613 -97.03370 592 ft 18 kts 131°
2026-05-07 21:17 32.89609 -97.03240 592 ft 17 kts 109°
2026-05-07 21:17 32.89498 -97.03196 592 ft 22 kts 179°
2026-05-07 21:17 32.89315 -97.03202 592 ft 29 kts 184°
2026-05-07 21:18 32.89093 -97.03200 592 ft 35 kts 179°
2026-05-07 21:18 32.88840 -97.03185 592 ft 38 kts 186°
2026-05-07 21:18 32.88594 -97.03201 592 ft 33 kts 180°
2026-05-07 21:18 32.88379 -97.03201 592 ft 29 kts 181°
2026-05-07 21:19 32.88189 -97.03203 592 ft 25 kts 181°
2026-05-07 21:19 32.88043 -97.03203 592 ft 18 kts 179°
2026-05-07 21:19 32.87977 -97.03130 592 ft 11 kts 89°
2026-05-07 21:19 32.87977 -97.03121 592 ft 0 kts 92°
2026-05-07 21:21 32.87977 -97.03111 592 ft 9 kts 88°
2026-05-07 21:21 32.87997 -97.03021 592 ft 6 kts 24°
2026-05-07 21:21 32.88042 -97.03014 592 ft 23 kts
2026-05-07 21:21 32.88496 -97.03013 592 ft 105 kts
2026-05-07 21:22 32.89446 -97.03006 828 ft 160 kts
2026-05-07 21:22 32.90641 -97.02900 1290 ft 179 kts
2026-05-07 21:22 32.91903 -97.02716 1792 ft 187 kts
2026-05-07 21:22 32.93213 -97.02506 2302 ft 192 kts
2026-05-07 21:23 32.94543 -97.02451 2797 ft 192 kts 350°
2026-05-07 21:23 32.95814 -97.02907 3295 ft 192 kts 332°
2026-05-07 21:23 32.96891 -97.03837 3801 ft 192 kts 315°
2026-05-07 21:23 32.97665 -97.05115 4302 ft 191 kts 297°
2026-05-07 21:24 32.98327 -97.06477 4798 ft 191 kts 308°
2026-05-07 21:24 32.99375 -97.07433 5305 ft 192 kts 333°
2026-05-07 21:24 33.00636 -97.07975 5800 ft 193 kts 342°
2026-05-07 21:24 33.01921 -97.08431 6294 ft 193 kts 342°
2026-05-07 21:25 33.03206 -97.08919 6788 ft 194 kts 341°
2026-05-07 21:25 33.04493 -97.09412 7287 ft 195 kts 341°
2026-05-07 21:25 33.05784 -97.09908 7780 ft 195 kts 341°
2026-05-07 21:25 33.07080 -97.10402 8281 ft 196 kts 341°
2026-05-07 21:26 33.08380 -97.10900 8771 ft 197 kts 341°
2026-05-07 21:26 33.09689 -97.11400 9268 ft 198 kts 341°
2026-05-07 21:26 33.11004 -97.11903 9767 ft 199 kts 341°
2026-05-07 21:26 33.12324 -97.12409 10269 ft 200 kts 341°
2026-05-07 21:27 33.13649 -97.12917 10771 ft 200 kts 341°
2026-05-07 21:27 33.14974 -97.13427 11269 ft 200 kts 341°
2026-05-07 21:27 33.16302 -97.13936 11763 ft 200 kts 341°
2026-05-07 21:27 33.17622 -97.14445 12249 ft 199 kts 341°
2026-05-07 21:28 33.18942 -97.14949 12736 ft 199 kts 341°
2026-05-07 21:28 33.20240 -97.15449 13215 ft 198 kts 341°
2026-05-07 21:28 33.21127 -97.15787 13527 ft 197 kts 341°
2026-05-07 21:28 33.22130 -97.16500 13868 ft 147 kts 307°
2026-05-07 21:29 33.22700 -97.17711 13930 ft 114 kts 275°
2026-05-07 21:29 33.22416 -97.18528 13836 ft 105 kts 237°
2026-05-07 21:29 33.21897 -97.19096 13702 ft 103 kts 204°
2026-05-07 21:29 33.21209 -97.19280 13571 ft 102 kts 180°
2026-05-07 21:30 33.20533 -97.19027 13424 ft 103 kts 151°
2026-05-07 21:30 33.19921 -97.18617 13318 ft 98 kts 153°
2026-05-07 21:30 33.19517 -97.18352 13226 ft 97 kts 153°
2026-05-07 21:30 33.18922 -97.17978 13084 ft 96 kts 159°
2026-05-07 21:31 33.18299 -97.17703 12944 ft 95 kts 158°
2026-05-07 21:31 33.17698 -97.17368 12803 ft 95 kts 160°
2026-05-07 21:31 33.17093 -97.17053 12656 ft 95 kts 156°
2026-05-07 21:31 33.16495 -97.16723 12513 ft 95 kts 159°
2026-05-07 21:32 33.15898 -97.16387 12376 ft 95 kts 156°
2026-05-07 21:32 33.15297 -97.16061 12249 ft 95 kts 157°
2026-05-07 21:32 33.14701 -97.15718 12124 ft 95 kts 158°
2026-05-07 21:32 33.14115 -97.15395 12044 ft 88 kts 156°
2026-05-07 21:33 33.13568 -97.15093 11901 ft 89 kts 159°
2026-05-07 21:33 33.13009 -97.14768 11775 ft 88 kts 156°
2026-05-07 21:33 33.12449 -97.14475 11642 ft 87 kts 156°
2026-05-07 21:33 33.11904 -97.14145 11499 ft 87 kts 160°
2026-05-07 21:34 33.11355 -97.13857 11358 ft 88 kts 153°
2026-05-07 21:34 33.10834 -97.13463 11175 ft 94 kts 145°
2026-05-07 21:34 33.10349 -97.12981 11094 ft 87 kts 142°
2026-05-07 21:34 33.09841 -97.12607 10762 ft 98 kts 183°
2026-05-07 21:35 33.09181 -97.12641 10784 ft 81 kts 187°
2026-05-07 21:35 33.08575 -97.12605 10597 ft 102 kts 150°
2026-05-07 21:35 33.08195 -97.11832 11088 ft 97 kts 123°
2026-05-07 21:35 33.07538 -97.11567 11307 ft 121 kts 194°
2026-05-07 21:36 33.06645 -97.11504 11665 ft 142 kts 158°
2026-05-07 21:36 33.05871 -97.10791 12301 ft 141 kts 127°
2026-05-07 21:36 33.05323 -97.09687 12487 ft 173 kts 133°
2026-05-07 21:36 33.04142 -97.09087 12533 ft 205 kts 181°
2026-05-07 21:37 33.02693 -97.09563 12572 ft 229 kts 205°
2026-05-07 21:37 33.01399 -97.10768 12579 ft 247 kts 232°
2026-05-07 21:37 33.00733 -97.12670 12634 ft 254 kts 262°
2026-05-07 21:37 33.00663 -97.14762 12908 ft 252 kts 270°
2026-05-07 21:38 33.00655 -97.16852 13122 ft 253 kts 268°
2026-05-07 21:38 33.00452 -97.18941 13283 ft 255 kts 263°
2026-05-07 21:38 33.00259 -97.21039 13506 ft 255 kts 264°
2026-05-07 21:38 32.99993 -97.23126 13665 ft 256 kts 255°
2026-05-07 21:39 32.99257 -97.25057 13844 ft 257 kts 239°
2026-05-07 21:39 32.98179 -97.26758 14008 ft 258 kts 232°
2026-05-07 21:39 32.97077 -97.28450 14182 ft 259 kts 233°
2026-05-07 21:39 32.95983 -97.30152 14346 ft 259 kts 233°
2026-05-07 21:40 32.94880 -97.31854 14509 ft 260 kts 233°
2026-05-07 21:40 32.93772 -97.33561 14672 ft 261 kts 233°
2026-05-07 21:40 32.92662 -97.35273 14831 ft 261 kts 233°
2026-05-07 21:40 32.91564 -97.36965 14993 ft 262 kts 233°
2026-05-07 21:41 32.90435 -97.38707 15146 ft 263 kts 233°
2026-05-07 21:41 32.89315 -97.40429 15295 ft 263 kts 233°
2026-05-07 21:41 32.88208 -97.42131 15441 ft 264 kts 233°
2026-05-07 21:41 32.87084 -97.43860 15585 ft 265 kts 233°
2026-05-07 21:42 32.85956 -97.45593 15733 ft 265 kts 233°
2026-05-07 21:42 32.84825 -97.47328 15878 ft 266 kts 233°
2026-05-07 21:42 32.83694 -97.49066 16019 ft 266 kts 233°
2026-05-07 21:42 32.82559 -97.50809 16155 ft 267 kts 233°
2026-05-07 21:43 32.81421 -97.52556 16277 ft 268 kts 233°
2026-05-07 21:43 32.80281 -97.54303 16386 ft 268 kts 233°
2026-05-07 21:43 32.79137 -97.56057 16490 ft 268 kts 233°
2026-05-07 21:43 32.78013 -97.57780 16856 ft 258 kts 232°
2026-05-07 21:44 32.76934 -97.59430 17272 ft 248 kts 232°
2026-05-07 21:44 32.75896 -97.61019 17687 ft 240 kts 233°
2026-05-07 21:44 32.74885 -97.62566 18104 ft 234 kts 232°
2026-05-07 21:44 32.73897 -97.64074 18521 ft 229 kts 233°
2026-05-07 21:45 32.72928 -97.65556 18939 ft 225 kts 233°
2026-05-07 21:45 32.71973 -97.67014 19359 ft 222 kts 233°
2026-05-07 21:45 32.71034 -97.68453 19778 ft 219 kts 233°
2026-05-07 21:45 32.70107 -97.69867 20196 ft 216 kts 233°
2026-05-07 21:46 32.69194 -97.71263 20616 ft 212 kts 233°
2026-05-07 21:46 32.68308 -97.72646 21032 ft 209 kts 237°
2026-05-07 21:46 32.67769 -97.74217 21449 ft 204 kts 258°
2026-05-07 21:46 32.67612 -97.75875 21869 ft 201 kts 265°
2026-05-07 21:47 32.67486 -97.77509 22288 ft 197 kts 264°
2026-05-07 21:47 32.67357 -97.79113 22703 ft 194 kts 265°
2026-05-07 21:47 32.67233 -97.80688 23118 ft 190 kts 265°
2026-05-07 21:47 32.67113 -97.82231 23533 ft 186 kts 265°
2026-05-07 21:48 32.66997 -97.83737 23942 ft 181 kts 265°
2026-05-07 21:48 32.66880 -97.85206 24357 ft 176 kts 265°
2026-05-07 21:48 32.66771 -97.86633 24766 ft 171 kts 265°
2026-05-07 21:48 32.66660 -97.88042 24994 ft 178 kts 265°
2026-05-07 21:49 32.66543 -97.89580 25016 ft 196 kts 265°
2026-05-07 21:49 32.66410 -97.91267 25014 ft 214 kts 265°
2026-05-07 21:49 32.66271 -97.93065 25011 ft 229 kts 265°
2026-05-07 21:49 32.66119 -97.94994 25007 ft 240 kts 265°
2026-05-07 21:50 32.65962 -97.97007 25004 ft 249 kts 265°
2026-05-07 21:50 32.65797 -97.99085 25011 ft 257 kts 264°
2026-05-07 21:50 32.65627 -98.01225 25007 ft 264 kts 265°
2026-05-07 21:50 32.65453 -98.03422 25010 ft 270 kts 264°
2026-05-07 21:51 32.65275 -98.05664 25010 ft 277 kts 265°
2026-05-07 21:51 32.65092 -98.07967 25010 ft 283 kts 264°
2026-05-07 21:51 32.64904 -98.10318 25010 ft 289 kts 264°
2026-05-07 21:51 32.64714 -98.12705 25010 ft 293 kts 264°
2026-05-07 21:52 32.64519 -98.15129 25006 ft 297 kts 264°
2026-05-07 21:52 32.64324 -98.17578 25011 ft 300 kts 264°
2026-05-07 21:52 32.64125 -98.20052 25009 ft 302 kts 264°
2026-05-07 21:52 32.63923 -98.22544 25009 ft 305 kts 264°
2026-05-07 21:53 32.63721 -98.25051 25010 ft 306 kts 264°
2026-05-07 21:53 32.63518 -98.27576 25011 ft 308 kts 264°
2026-05-07 21:53 32.63311 -98.30110 25009 ft 309 kts 264°
2026-05-07 21:53 32.63105 -98.32649 25010 ft 310 kts 264°
2026-05-07 21:54 32.62896 -98.35208 25011 ft 311 kts 264°
2026-05-07 21:54 32.62688 -98.37764 25010 ft 312 kts 264°
2026-05-07 21:54 32.62477 -98.40330 25010 ft 313 kts 264°
2026-05-07 21:54 32.62266 -98.42897 25011 ft 313 kts 264°
2026-05-07 21:55 32.62055 -98.45470 25009 ft 313 kts 264°
2026-05-07 21:55 32.61843 -98.48043 25010 ft 314 kts 264°
2026-05-07 21:55 32.61631 -98.50619 25010 ft 314 kts 264°
2026-05-07 21:55 32.61418 -98.53197 25010 ft 314 kts 264°
2026-05-07 21:56 32.61204 -98.55775 25010 ft 314 kts 264°
2026-05-07 21:56 32.60990 -98.58350 25010 ft 314 kts 264°
2026-05-07 21:56 32.60774 -98.60927 25010 ft 314 kts 264°
2026-05-07 21:56 32.60557 -98.63505 25010 ft 314 kts 264°
2026-05-07 21:57 32.60341 -98.66078 25010 ft 314 kts 264°
2026-05-07 21:57 32.60124 -98.68656 25010 ft 314 kts 264°
2026-05-07 21:57 32.59907 -98.71227 25010 ft 314 kts 264°
2026-05-07 21:57 32.59691 -98.73770 25010 ft 314 kts 264°
2026-05-07 21:58 32.59474 -98.76344 25010 ft 314 kts 264°
2026-05-07 21:58 32.59256 -98.78915 25010 ft 314 kts 264°
2026-05-07 21:58 32.59037 -98.81490 25010 ft 314 kts 264°
2026-05-07 21:58 32.58818 -98.84067 25004 ft 314 kts 264°
2026-05-07 21:59 32.58597 -98.86640 25010 ft 314 kts 264°
2026-05-07 21:59 32.58377 -98.89218 25010 ft 314 kts 264°
2026-05-07 21:59 32.58155 -98.91792 25007 ft 314 kts 264°
2026-05-07 21:59 32.57932 -98.94366 25010 ft 314 kts 264°
2026-05-07 22:00 32.57709 -98.96941 25005 ft 314 kts 264°
2026-05-07 22:00 32.57486 -98.99516 25010 ft 314 kts 264°
2026-05-07 22:00 32.57262 -99.02092 25010 ft 314 kts 264°
2026-05-07 22:00 32.57038 -99.04664 25010 ft 314 kts 264°
2026-05-07 22:01 32.56813 -99.07242 25010 ft 314 kts 264°
2026-05-07 22:01 32.56589 -99.09821 25010 ft 314 kts 264°
2026-05-07 22:01 32.56363 -99.12396 25010 ft 314 kts 264°
2026-05-07 22:01 32.56136 -99.14972 25010 ft 314 kts 264°
2026-05-07 22:02 32.55911 -99.17546 25003 ft 314 kts 264°
2026-05-07 22:02 32.55683 -99.20118 25010 ft 314 kts 264°
2026-05-07 22:02 32.55456 -99.22691 25010 ft 314 kts 264°
2026-05-07 22:02 32.55225 -99.25269 25010 ft 314 kts 264°
2026-05-07 22:03 32.54997 -99.27841 25010 ft 314 kts 264°
2026-05-07 22:03 32.54768 -99.30414 25010 ft 314 kts 264°
2026-05-07 22:03 32.54538 -99.32984 25010 ft 314 kts 264°
2026-05-07 22:03 32.54389 -99.35561 25009 ft 313 kts 266°
2026-05-07 22:04 32.54234 -99.38129 25009 ft 313 kts 265°
2026-05-07 22:04 32.54073 -99.40700 25009 ft 313 kts 266°
2026-05-07 22:04 32.53922 -99.43273 25009 ft 313 kts 266°
2026-05-07 22:04 32.53771 -99.45844 25009 ft 313 kts 266°
2026-05-07 22:05 32.53617 -99.48413 25009 ft 312 kts 266°
2026-05-07 22:05 32.53462 -99.50981 25006 ft 312 kts 266°
2026-05-07 22:05 32.53306 -99.53547 25004 ft 312 kts 266°
2026-05-07 22:05 32.53150 -99.56112 25009 ft 312 kts 266°
2026-05-07 22:06 32.52993 -99.58676 25008 ft 312 kts 266°
2026-05-07 22:06 32.52837 -99.61241 25009 ft 312 kts 266°
2026-05-07 22:06 32.52679 -99.63807 25009 ft 312 kts 266°
2026-05-07 22:06 32.52522 -99.66372 25009 ft 312 kts 266°
2026-05-07 22:07 32.52364 -99.68938 25009 ft 312 kts 266°
2026-05-07 22:07 32.52205 -99.71504 25009 ft 312 kts 266°
2026-05-07 22:07 32.52047 -99.74067 25009 ft 312 kts 266°
2026-05-07 22:07 32.51887 -99.76633 25009 ft 312 kts 266°
2026-05-07 22:08 32.51727 -99.79198 25009 ft 312 kts 266°
2026-05-07 22:08 32.51567 -99.81768 25009 ft 312 kts 266°
2026-05-07 22:08 32.51405 -99.84331 25009 ft 312 kts 266°
2026-05-07 22:08 32.51242 -99.86902 25009 ft 312 kts 265°
2026-05-07 22:09 32.51079 -99.89465 25009 ft 312 kts 265°
2026-05-07 22:09 32.50916 -99.92028 25009 ft 312 kts 265°
2026-05-07 22:09 32.50752 -99.94598 25009 ft 312 kts 265°
2026-05-07 22:09 32.50588 -99.97162 25009 ft 312 kts 265°
2026-05-07 22:10 32.50423 -99.99724 25009 ft 312 kts 265°
2026-05-07 22:10 32.50259 -100.02287 25009 ft 312 kts 265°
2026-05-07 22:10 32.50095 -100.04855 25009 ft 312 kts 265°
2026-05-07 22:10 32.49928 -100.07415 25009 ft 312 kts 265°
2026-05-07 22:11 32.49762 -100.09980 25003 ft 312 kts 265°
2026-05-07 22:11 32.49596 -100.12537 25009 ft 312 kts 265°
2026-05-07 22:11 32.49428 -100.15101 25009 ft 312 kts 265°
2026-05-07 22:11 32.49263 -100.17627 25009 ft 312 kts 265°
2026-05-07 22:12 32.49093 -100.20182 25009 ft 312 kts 265°
2026-05-07 22:12 32.48924 -100.22739 25009 ft 311 kts 265°
2026-05-07 22:12 32.48756 -100.25299 25009 ft 311 kts 265°
2026-05-07 22:12 32.48585 -100.27854 25009 ft 311 kts 265°
2026-05-07 22:13 32.48414 -100.30405 25008 ft 311 kts 265°
2026-05-07 22:13 32.48244 -100.32963 25009 ft 311 kts 265°
2026-05-07 22:13 32.48079 -100.35516 25009 ft 311 kts 265°
2026-05-07 22:13 32.47913 -100.38073 25008 ft 311 kts 265°
2026-05-07 22:14 32.47744 -100.40622 25008 ft 311 kts 265°
2026-05-07 22:14 32.47576 -100.43174 25008 ft 311 kts 265°
2026-05-07 22:14 32.47407 -100.45724 25008 ft 311 kts 265°
2026-05-07 22:14 32.47237 -100.48275 25008 ft 310 kts 265°
2026-05-07 22:15 32.47066 -100.50819 25008 ft 310 kts 265°
2026-05-07 22:15 32.46786 -100.53346 24999 ft 310 kts 256°
2026-05-07 22:15 32.45900 -100.55655 24991 ft 310 kts 237°
2026-05-07 22:15 32.44538 -100.57632 24995 ft 310 kts 228°
2026-05-07 22:16 32.43056 -100.59485 24996 ft 310 kts 226°
2026-05-07 22:16 32.41550 -100.61309 24994 ft 310 kts 226°
2026-05-07 22:16 32.40038 -100.63127 24994 ft 310 kts 226°
2026-05-07 22:16 32.39036 -100.64329 24991 ft 310 kts 226°
2026-05-07 22:17 32.37012 -100.66756 24993 ft 310 kts 226°
2026-05-07 22:17 32.36008 -100.67959 24993 ft 310 kts 226°
2026-05-07 22:17 32.34491 -100.69776 24997 ft 310 kts 226°
2026-05-07 22:17 32.32976 -100.71591 24997 ft 310 kts 226°
2026-05-07 22:18 32.31457 -100.73412 24994 ft 311 kts 226°
2026-05-07 22:18 32.28421 -100.77041 24994 ft 311 kts 226°
2026-05-07 22:18 32.26901 -100.78856 24997 ft 311 kts 226°
2026-05-07 22:19 32.25379 -100.80671 24993 ft 311 kts 226°
2026-05-07 22:19 32.23855 -100.82488 24993 ft 311 kts 226°
2026-05-07 22:19 32.22334 -100.84299 24992 ft 311 kts 226°
2026-05-07 22:19 32.20810 -100.86114 24994 ft 311 kts 226°
2026-05-07 22:20 32.19287 -100.87928 24998 ft 311 kts 226°
2026-05-07 22:20 32.17762 -100.89745 24998 ft 311 kts 226°
2026-05-07 22:20 32.16237 -100.91561 24998 ft 312 kts 226°
2026-05-07 22:20 32.14713 -100.93375 24996 ft 311 kts 226°
2026-05-07 22:21 32.13185 -100.95194 24996 ft 311 kts 226°
2026-05-07 22:21 32.11661 -100.97009 24996 ft 311 kts 226°
2026-05-07 22:21 32.10136 -100.98820 24993 ft 311 kts 226°
2026-05-07 22:21 32.08621 -101.00644 24994 ft 311 kts 227°
2026-05-07 22:22 32.07226 -101.02588 24993 ft 310 kts 233°
2026-05-07 22:22 32.06037 -101.04706 24988 ft 310 kts 240°
2026-05-07 22:22 32.05079 -101.06982 24992 ft 310 kts 247°
2026-05-07 22:22 32.04374 -101.09377 24992 ft 309 kts 255°
2026-05-07 22:23 32.04003 -101.11872 24992 ft 309 kts 266°
2026-05-07 22:23 32.04029 -101.14400 24992 ft 308 kts 273°
2026-05-07 22:23 32.04174 -101.16887 24992 ft 308 kts 274°
2026-05-07 22:23 32.04232 -101.19442 24992 ft 308 kts 269°
2026-05-07 22:24 32.04188 -101.21933 24991 ft 308 kts 269°
2026-05-07 22:24 32.04171 -101.24455 24991 ft 308 kts 270°
2026-05-07 22:24 32.04193 -101.26974 24991 ft 308 kts 270°
2026-05-07 22:24 32.04204 -101.29492 24991 ft 308 kts 270°
2026-05-07 22:25 32.04200 -101.32014 24991 ft 308 kts 270°
2026-05-07 22:25 32.04201 -101.34535 24990 ft 308 kts 270°
2026-05-07 22:25 32.04205 -101.37060 24991 ft 308 kts 270°
2026-05-07 22:25 32.04207 -101.39584 24991 ft 308 kts 270°
2026-05-07 22:26 32.04209 -101.42106 24991 ft 308 kts 270°
2026-05-07 22:26 32.04211 -101.44627 24991 ft 308 kts 270°
2026-05-07 22:26 32.04210 -101.47149 24992 ft 308 kts 270°
2026-05-07 22:26 32.04210 -101.49672 24992 ft 308 kts 270°
2026-05-07 22:27 32.04211 -101.52195 24992 ft 308 kts 270°
2026-05-07 22:27 32.04209 -101.54717 24992 ft 308 kts 270°
2026-05-07 22:27 32.04208 -101.57242 24992 ft 308 kts 270°
2026-05-07 22:27 32.04204 -101.59767 24992 ft 308 kts 270°
2026-05-07 22:28 32.04202 -101.62290 24992 ft 308 kts 270°
2026-05-07 22:28 32.04198 -101.64815 24992 ft 308 kts 270°
2026-05-07 22:28 32.04194 -101.67340 24992 ft 308 kts 270°
2026-05-07 22:28 32.04190 -101.69864 24992 ft 308 kts 270°
2026-05-07 22:29 32.04185 -101.72384 24992 ft 308 kts 270°
2026-05-07 22:29 32.04181 -101.74910 24992 ft 308 kts 270°
2026-05-07 22:29 32.04176 -101.77437 24992 ft 308 kts 270°
2026-05-07 22:29 32.04170 -101.79957 24992 ft 308 kts 270°
2026-05-07 22:30 32.04164 -101.82481 24992 ft 308 kts 270°
2026-05-07 22:30 32.04157 -101.85003 24992 ft 308 kts 270°
2026-05-07 22:30 32.04149 -101.87523 24992 ft 308 kts 270°
2026-05-07 22:30 32.04141 -101.90047 24989 ft 308 kts 270°
2026-05-07 22:31 32.04130 -101.92566 24992 ft 308 kts 270°
2026-05-07 22:31 32.04122 -101.95090 24992 ft 308 kts 270°
2026-05-07 22:31 32.04112 -101.97572 25000 ft 289 kts 270°
2026-05-07 22:31 32.04171 -101.99770 24987 ft 249 kts 274°
2026-05-07 22:32 32.04308 -102.01712 24982 ft 238 kts 274°
2026-05-07 22:32 32.04414 -102.03686 24993 ft 245 kts 273°
2026-05-07 22:32 32.04498 -102.05694 24998 ft 252 kts 273°
2026-05-07 22:32 32.04593 -102.07781 25008 ft 258 kts 273°
2026-05-07 22:33 32.04693 -102.09910 25011 ft 263 kts 273°
2026-05-07 22:33 32.04789 -102.11974 25005 ft 236 kts 273°
2026-05-07 22:33 32.04871 -102.13786 24987 ft 208 kts 273°
2026-05-07 22:33 32.04945 -102.15391 24987 ft 185 kts 273°
2026-05-07 22:34 32.05010 -102.16828 24985 ft 167 kts 273°
2026-05-07 22:34 32.05071 -102.18138 24979 ft 160 kts 273°
2026-05-07 22:34 32.05132 -102.19530 25013 ft 179 kts 273°
2026-05-07 22:34 32.05205 -102.21074 25016 ft 198 kts 273°
2026-05-07 22:35 32.05281 -102.22764 25013 ft 215 kts 273°
2026-05-07 22:35 32.05364 -102.24587 25012 ft 229 kts 273°
2026-05-07 22:35 32.05450 -102.26510 25008 ft 240 kts 273°
2026-05-07 22:35 32.05541 -102.28511 25006 ft 248 kts 273°
2026-05-07 22:36 32.05631 -102.30572 25010 ft 255 kts 273°
2026-05-07 22:36 32.05725 -102.32682 25010 ft 261 kts 273°
2026-05-07 22:36 32.05820 -102.34836 25009 ft 266 kts 273°
2026-05-07 22:36 32.05916 -102.37028 25011 ft 270 kts 273°
2026-05-07 22:37 32.06014 -102.39255 25009 ft 274 kts 273°
2026-05-07 22:37 32.06113 -102.41521 25010 ft 279 kts 273°
2026-05-07 22:37 32.06213 -102.43819 25010 ft 284 kts 273°
2026-05-07 22:37 32.06316 -102.46161 25010 ft 288 kts 273°
2026-05-07 22:38 32.06418 -102.48527 25010 ft 291 kts 273°
2026-05-07 22:38 32.06522 -102.50919 25009 ft 293 kts 273°
2026-05-07 22:38 32.06625 -102.53330 25010 ft 295 kts 273°
2026-05-07 22:38 32.06728 -102.55752 25013 ft 293 kts 273°
2026-05-07 22:39 32.06815 -102.57761 25003 ft 262 kts 273°